Regional Weather Roundup
Issued by NWS

Home | Current Version | Previous Version | Graphics & Text | Print | Product List | Glossary Off
Versions: 1 2 3 4 5 6 7 8 9 10 11 12 13 14 15 16 17 18 19 20 21 22 23 24 25 26 27 28 29 30 31 32 33 34 35 36 37 38 39 40 41 42 43 44 45 46 47 48 49 50

000
ASUS43 KDMX 040606
RWRIA

WEATHER ROUNDUP FOR IOWA
NATIONAL WEATHER SERVICE DES MOINES IA
1200 AM CST SUN DEC 04 2016

NOTE: "FAIR" INDICATES FEW OR NO CLOUDS BELOW 12,000 FEET WITH NO
SIGNIFICANT WEATHER AND/OR OBSTRUCTIONS TO VISIBILITY.

* - THESE STATIONS ARE NOT NWS STATIONS...THUS NOT UNDER NWS
QUALITY CONTROL.  THEY ALSO DO NOT REPORT WEATHER SUCH
AS PRECIPITATION OR FOG.

IAZ001>003-012>014-020>022-031>034-043>046-040700-
   NORTHWEST IOWA

CITY           SKY/WX    TMP DP  RH WIND       PRES   REMARKS
CARROLL *      LGT SNOW  34  32  93 SE8       30.06F WCI  27
CHEROKEE *     CLOUDY    33  33 100 SE9       30.04F WCI  25
DENISON *      CLOUDY    34  34 100 SE6       30.03F FOG     WCI  29
LE MARS *      CLOUDY    34  34 100 S12       30.03F WCI  25
ORANGE CITY *  CLOUDY    34  34 100 S9        30.02F WCI  26
SHELDON *      CLOUDY    34  34 100 S12       30.01F WCI  25
SIOUX CITY     CLOUDY    35  33  92 S13       30.04F WCI  26
6HR MIN TEMP:  34; 6HR MAX TEMP:  35; 6HR PCP: TRACE;

SPENCER        CLOUDY    33  33 100 S18       30.04F WCI  22
6HR MIN TEMP:  33; 6HR MAX TEMP:  34; 6HR PCP:  0.01;

STORM LAKE *   CLOUDY    32  32 100 SE12      30.04F FOG     WCI  23
$$

IAZ055>058-069>071-079>083-090>094-040700-
   SOUTHWEST IOWA

CITY           SKY/WX    TMP DP  RH WIND       PRES   REMARKS
ATLANTIC *     LGT SNOW  34  34 100 S7        30.06F WCI  28
AUDUBON *      LGT SNOW  34  30  86 S3        30.06F
CLARINDA *       N/A     39  37  93 S6        30.09S WCI  35
COUNCIL BLFS * CLOUDY    34  34 100 S6        30.04F FOG     WCI  29
CRESTON *      CLOUDY    37  36  93 SE12G17   30.08F FOG     WCI  30
HARLAN  *      LGT SNOW  32  32 100 SE5       30.08F WCI  27
LAMONI         LGT RAIN  38  35  89 SE14      30.10F WCI  30
6HR MIN TEMP:  38; 6HR MAX TEMP:  41; 6HR PCP:  0.06;

RED OAK *      LGT RAIN  37  37 100 S8        30.07F WCI  31
SHENANDOAH *   LGT RAIN  37  37 100 S6        30.08F WCI  33
$$

IAZ047>049-059>061-072>074-084-040700-
   CENTRAL IOWA

CITY           SKY/WX    TMP DP  RH WIND       PRES   REMARKS
AMES           LGT SNOW  33  33 100 SE12      30.11F FOG     WCI  24
6HR MIN TEMP:  33; 6HR MAX TEMP:  36; 6HR PCP:  0.08;

ANKENY *       LGT RAIN  34  34 100 SE8       30.12F WCI  27
BOONE *        LGT SNOW  32  32 100 SE15G22   30.07F WCI  22
CHARITON *     MIX PCPN  37  36  93 SE12      30.11F WCI  30
DES MOINES     LGT SNOW  36  34  92 SE10      30.11F FOG     WCI  28
6HR MIN TEMP:  37; 6HR MAX TEMP:  40; 6HR PCP:  0.08;

GRINNELL*      LGT SNOW  33  32  96 E10       30.14F WCI  25
KNOXVILLE *    CLOUDY    36  32  87 SE9       30.11F WCI  29
MARSHALLTOWN   LGT SNOW  33  32  96 SE15      30.12F FOG     WCI  23
6HR MIN TEMP:  33; 6HR MAX TEMP:  36; 6HR PCP:  0.01;

NEWTON *       CLOUDY    34  32  93 SE13      30.12F FOG     WCI  25
PELLA *        LGT RAIN  36  32  87 SE8       30.15F WCI  29
PERRY *        LGT SNOW  34  34 100 SE12      30.08F WCI  26
$$

IAZ004>006-015-016-023>025-035-036-040700-
   NORTH CENTRAL IOWA

CITY           SKY/WX    TMP DP  RH WIND       PRES   REMARKS
ALGONA *       CLOUDY    34  34 100 SE12      30.07F FOG     WCI  25
CLARION *      CLOUDY    34  34 100 SE12      30.10F FOG     WCI  25
ESTHERVILLE    CLOUDY    32  32 100 S16       30.05F WCI  21
6HR MIN TEMP:  32; 6HR MAX TEMP:  32; 6HR PCP:  0.01;

FORT DODGE *   CLOUDY    34  30  86 SE8       30.09F WCI  27
MASON CITY     LGT SNOW  32  31  96 SE13      30.12F FOG     WCI  22
6HR MIN TEMP:  32; 6HR MAX TEMP:  33; 6HR PCP:  0.06;

FOREST CITY *  LGT SNOW  32  32 100 SE9       30.09F WCI  24
WEBSTER CITY * CLOUDY    34  34 100 SE12G20   30.08F FOG     WCI  25
IOWA FALLS *   LGT SNOW  34  32  95 SE10      30.12F WCI  26
$$

IAZ007>011-017>019-026>030-037>042-050>054-066-040700-
   NORTHEAST IOWA

CITY           SKY/WX    TMP DP  RH WIND       PRES   REMARKS
CEDAR RAPIDS   LGT SNOW  34  30  85 SE9       30.17F FOG     WCI  27
6HR MIN TEMP:  34; 6HR MAX TEMP:  35; 6HR PCP: TRACE;

CHARLES CITY * LGT SNOW  32  32 100 SE12      30.14F WCI  23
CLINTON *      CLOUDY    34  27  75 S8        30.24F WCI  27
DECORAH *      LGT SNOW  32  30  93 SE7       30.15F WCI  26
DUBUQUE        CLOUDY    32  28  85 S9        30.20F WCI  24
6HR MIN TEMP:  32; 6HR MAX TEMP:  34;

MONTICELLO *   CLOUDY    34  28  80 S9        30.20F WCI  26
OELWEIN *      CLOUDY    34  32  93 SE13      30.16F FOG     WCI  25
WATERLOO       LGT SNOW  33  30  88 SE10      30.15F FOG     WCI  25
6HR MIN TEMP:  33; 6HR MAX TEMP:  37; 6HR PCP:  0.01;

$$

IAZ064-065-067-068-078-040700-
   EAST CENTRAL IOWA

CITY           SKY/WX    TMP DP  RH WIND       PRES   REMARKS
DAVENPORT      CLOUDY    34  26  72 SE8       30.23F WCI  27
6HR MIN TEMP:  32; 6HR MAX TEMP:  34;

IOWA CITY      CLOUDY    35  29  78 SE9       30.21F WCI  28
6HR MIN TEMP:  35; 6HR MAX TEMP:  37;

MUSCATINE *    CLOUDY    36  28  75 SE9       30.22F WCI  29
QUAD CITIES    CLOUDY    35  27  72 SE9       30.22F WCI  28
6HR MIN TEMP:  33; 6HR MAX TEMP:  35;

$$

IAZ062-063-075>077-085>089-095>099-040700-
   SOUTHEAST IOWA

CITY           SKY/WX    TMP DP  RH WIND       PRES   REMARKS
BURLINGTON     CLOUDY    35  31  85 SE9       30.20F WCI  28
6HR MIN TEMP:  35; 6HR MAX TEMP:  36;

FAIRFIELD *    CLOUDY    36  30  80 SE9       30.17F WCI  29
FORT MADISON * PTCLDY    36  30  80 SE9       30.20F WCI  29
KEOKUK *       CLOUDY    37  32  81 SE9       30.18F WCI  31
OSKALOOSA *    CLOUDY    35  32  87 SE10      30.16F WCI  28
CENTERVILLE *    N/A     37  32  81 SE8       30.14F WCI  31
OTTUMWA        CLOUDY    37  31  78 SE7       30.15F WCI  32
6HR MIN TEMP:  37; 6HR MAX TEMP:  38;

WASHINGTON *   CLOUDY    36  30  80 SE10      30.20F WCI  28
$$

ABBREVIATIONS USED IN REMARKS
   TC - TEMPERATURES IN CELSIUS
  WCI - WIND CHILL INDEX
   HX - HEAT INDEX
  VSB - VISIBILITY
$$




USA.gov is the U.S. government's official web portal to all federal, state and local government web resources and services.